Weather in Cherniakhiv

Ukraine / Zhytomyr Region     50°27′17″N   28°39′54″E
temp.,
°C
wind,
m/s
gust,
m/s
humid.,
%
clouds,
%
prec.,
mm/h
press.,
hPa
HPBL,
m
6 may, thu
thu600:00+12s7178598 0.3 1005670
03:00+9s8158498 0.4 1004448
06:00+9sw61193100 0.2 1005582
09:00+8w81285100 0.3 1009989
12:00+12w71058100 0.1 10101787
15:00+13w81045100 0.1 10111949
18:00+12w6951100 0.0 10121746
21:00+8wsw345977 0.0 101349
7 may, fri
fri700:00+7ssw356699 0.0 101482
03:00+6ssw487611 0.0 1014123
06:00+5s497714 0.0 1013154
09:00+10s51073100 0.0 1012449
12:00+12sse71378100 0.2 1010941
15:00+14ssw71179100 1.7 10081018
18:00+13s4782100 1.6 1007326
21:00+10s3594100 2.1 100778
8 may, sat
sat800:00+10wnw51291100 0.9 1007434
03:00+9wnw51188100 1.1 1008554
06:00+4wnw61388100 0.0 1011672
09:00+7wnw8117398 0.0 10131000
12:00+9wnw10115871 0.1 10141841
15:00+9wnw10126237 0.1 10161637
18:00+9w711605 0.1 10161871
21:00+6w612691 0.1 1018457
9 may, sun
sun900:00+4w513834 0.0 1020365
03:00+3w512910 0.0 1021303
06:00+2wnw410951 0.0 1023211
09:00+8nw46673 0.0 1024645
12:00+12nw345667 0.0 10251640
15:00+12wnw344987 0.1 10251721
18:00+14w234514 0.0 10241887
21:00+8se22605 0.0 102510
10 may, mon
mon1000:00+7sse45715 0.0 102657
03:00+6s36725 0.0 102688
06:00+5s34755 0.0 102760
09:00+12sse35615 0.0 1027322
12:00+16sse44481 0.0 10261373
15:00+18sse44460 0.0 10241620
18:00+17se34551 0.0 10231477
21:00+11ese467310 0.0 102475